TimeEST,TemperatureF,Dew PointF,Humidity,Sea Level PressureIn,VisibilityMPH,Wind Direction,Wind SpeedMPH,Gust SpeedMPH,PrecipitationIn,Events,Conditions,WindDirDegrees,DateUTC
12:13 AM,27.3,24.8,90,30.40,10.0,Calm,Calm,-,N/A,,Clear,0,2013-01-10 05:13:00
12:32 AM,27.0,24.6,91,30.40,10.0,Calm,Calm,-,N/A,,Clear,0,2013-01-10 05:32:00
12:53 AM,25.7,23.9,93,30.42,10.0,Calm,Calm,-,N/A,,Clear,0,2013-01-10 05:53:00
1:13 AM,26.1,24.6,94,30.43,10.0,SSW,3.5,-,N/A,,Clear,200,2013-01-10 06:13:00
1:32 AM,27.3,24.1,88,30.45,10.0,SW,4.6,-,N/A,,Clear,220,2013-01-10 06:32:00
1:53 AM,29.7,25.5,85,30.47,10.0,SW,4.6,-,N/A,,Clear,220,2013-01-10 06:53:00
2:13 AM,29.8,25.3,83,30.49,10.0,SSW,4.6,-,N/A,,Clear,210,2013-01-10 07:13:00
2:32 AM,29.8,25.3,83,30.50,10.0,SW,5.8,-,N/A,,Clear,220,2013-01-10 07:32:00
2:53 AM,29.7,25.2,83,30.52,10.0,SW,3.5,-,N/A,,Clear,220,2013-01-10 07:53:00
3:13 AM,29.7,25.2,83,30.52,10.0,SW,3.5,-,N/A,,Clear,230,2013-01-10 08:13:00
3:32 AM,29.5,24.8,83,30.52,10.0,Calm,Calm,-,N/A,,Clear,0,2013-01-10 08:32:00
3:53 AM,27.0,24.1,89,30.52,10.0,Calm,Calm,-,N/A,,Clear,0,2013-01-10 08:53:00
4:13 AM,24.8,23.2,94,30.51,10.0,Calm,Calm,-,N/A,,Clear,0,2013-01-10 09:13:00
4:33 AM,24.8,23.5,95,30.51,10.0,Calm,Calm,-,N/A,,Clear,0,2013-01-10 09:33:00
4:53 AM,24.3,22.6,94,30.50,10.0,Calm,Calm,-,N/A,,Clear,0,2013-01-10 09:53:00
5:13 AM,23.5,22.3,95,30.50,10.0,Calm,Calm,-,N/A,,Clear,0,2013-01-10 10:13:00
5:33 AM,23.0,21.7,95,30.50,10.0,Calm,Calm,-,N/A,,Clear,0,2013-01-10 10:33:00
5:53 AM,22.6,21.7,96,30.50,10.0,Calm,Calm,-,N/A,,Clear,0,2013-01-10 10:53:00
6:13 AM,22.1,21.0,96,30.51,10.0,Calm,Calm,-,N/A,,Clear,0,2013-01-10 11:13:00
6:33 AM,22.3,21.4,96,30.52,10.0,Calm,Calm,-,N/A,,Clear,0,2013-01-10 11:33:00
6:53 AM,22.5,21.2,95,30.53,10.0,Calm,Calm,-,N/A,,Clear,0,2013-01-10 11:53:00
7:33 AM,21.6,20.3,95,30.55,10.0,Calm,Calm,-,N/A,,Clear,0,2013-01-10 12:33:00
7:53 AM,22.5,21.0,94,30.55,10.0,Calm,Calm,-,N/A,,Clear,0,2013-01-10 12:53:00
8:13 AM,22.1,21.2,96,30.55,10.0,Calm,Calm,-,N/A,,Clear,0,2013-01-10 13:13:00
8:33 AM,22.5,21.2,95,30.55,10.0,Calm,Calm,-,N/A,,Clear,0,2013-01-10 13:33:00
8:53 AM,22.1,20.7,94,30.55,10.0,Calm,Calm,-,N/A,,Clear,0,2013-01-10 13:53:00
9:33 AM,24.4,23.0,94,30.55,10.0,Calm,Calm,-,N/A,,Clear,0,2013-01-10 14:33:00
9:53 AM,27.1,25.3,93,30.56,10.0,Calm,Calm,-,N/A,,Clear,0,2013-01-10 14:53:00
10:13 AM,28.6,26.2,91,30.56,10.0,Calm,Calm,-,N/A,,Clear,0,2013-01-10 15:13:00
10:33 AM,30.0,26.8,88,30.56,10.0,Calm,Calm,-,N/A,,Clear,0,2013-01-10 15:33:00
10:53 AM,31.8,27.7,85,30.56,10.0,Calm,Calm,-,N/A,,Clear,0,2013-01-10 15:53:00
11:12 AM,32.5,27.5,82,30.55,10.0,Calm,Calm,-,N/A,,Clear,0,2013-01-10 16:12:00
11:33 AM,35.1,27.7,74,30.53,10.0,Calm,Calm,-,N/A,,Clear,0,2013-01-10 16:33:00
11:53 AM,36.7,27.3,69,30.52,10.0,SE,6.9,-,N/A,,Clear,130,2013-01-10 16:53:00
12:12 PM,37.8,27.1,66,30.51,10.0,SE,5.8,-,N/A,,Clear,130,2013-01-10 17:12:00
12:33 PM,39.2,27.3,62,30.50,10.0,SE,8.1,-,N/A,,Clear,130,2013-01-10 17:33:00
12:53 PM,39.6,27.7,62,30.48,10.0,ESE,4.6,-,N/A,,Clear,110,2013-01-10 17:53:00
1:12 PM,40.1,27.5,61,30.48,10.0,SSE,6.9,-,N/A,,Clear,160,2013-01-10 18:12:00
1:33 PM,39.4,27.0,61,30.46,10.0,SE,6.9,-,N/A,,Clear,130,2013-01-10 18:33:00
1:53 PM,39.2,27.0,62,30.46,10.0,SE,6.9,-,N/A,,Clear,130,2013-01-10 18:53:00
2:12 PM,38.8,25.9,60,30.45,10.0,SE,9.2,-,N/A,,Clear,130,2013-01-10 19:12:00
2:33 PM,38.5,26.8,63,30.44,10.0,SE,5.8,-,N/A,,Clear,130,2013-01-10 19:33:00
2:53 PM,37.9,26.8,64,30.43,10.0,SE,6.9,-,N/A,,Clear,130,2013-01-10 19:53:00
3:13 PM,37.6,27.0,66,30.43,10.0,SE,5.8,-,N/A,,Clear,140,2013-01-10 20:13:00
3:33 PM,37.4,26.8,66,30.43,10.0,SE,6.9,-,N/A,,Clear,130,2013-01-10 20:33:00
3:53 PM,37.0,27.1,67,30.42,10.0,SE,5.8,-,N/A,,Clear,130,2013-01-10 20:53:00
4:12 PM,36.5,27.7,70,30.42,10.0,SE,6.9,-,N/A,,Clear,130,2013-01-10 21:12:00
4:33 PM,36.1,27.7,71,30.41,10.0,SE,5.8,-,N/A,,Clear,130,2013-01-10 21:33:00
4:53 PM,35.8,27.5,72,30.40,10.0,ESE,6.9,-,N/A,,Clear,120,2013-01-10 21:53:00
5:13 PM,35.2,27.3,73,30.40,10.0,ESE,5.8,-,N/A,,Clear,120,2013-01-10 22:13:00
5:33 PM,35.1,27.9,75,30.40,10.0,SE,5.8,-,N/A,,Clear,130,2013-01-10 22:33:00
5:53 PM,34.7,28.4,78,30.39,10.0,SE,8.1,-,N/A,,Clear,130,2013-01-10 22:53:00
6:13 PM,34.7,28.4,78,30.38,10.0,SE,8.1,-,N/A,,Clear,130,2013-01-10 23:13:00
6:33 PM,34.7,28.8,79,30.38,10.0,SE,6.9,-,N/A,,Clear,130,2013-01-10 23:33:00
6:53 PM,34.0,29.3,83,30.36,10.0,East,5.8,-,N/A,,Clear,100,2013-01-10 23:53:00
7:13 PM,33.8,29.1,83,30.36,10.0,ESE,5.8,-,N/A,,Clear,120,2013-01-11 00:13:00
7:33 PM,33.8,29.3,84,30.35,10.0,ESE,5.8,-,N/A,,Clear,110,2013-01-11 00:33:00
7:52 PM,33.8,29.3,84,30.34,10.0,ESE,8.1,-,N/A,,Clear,120,2013-01-11 00:52:00
8:13 PM,33.4,29.5,85,30.33,10.0,ESE,8.1,-,N/A,,Clear,120,2013-01-11 01:13:00
8:33 PM,33.8,29.3,84,30.33,10.0,ESE,9.2,-,N/A,,Clear,120,2013-01-11 01:33:00
8:52 PM,33.8,29.3,84,30.32,10.0,SE,6.9,-,N/A,,Clear,130,2013-01-11 01:52:00
9:13 PM,33.8,29.7,85,30.30,10.0,ESE,10.4,-,N/A,,Clear,120,2013-01-11 02:13:00
9:33 PM,34.0,29.7,84,30.29,10.0,ESE,8.1,-,N/A,,Clear,120,2013-01-11 02:33:00
9:52 PM,34.2,29.8,84,30.27,10.0,ESE,9.2,-,N/A,,Scattered Clouds,120,2013-01-11 02:52:00
10:13 PM,34.3,30.0,84,30.26,10.0,SE,9.2,16.1,N/A,,Light Drizzle,130,2013-01-11 03:13:00
10:33 PM,34.2,30.4,86,30.25,7.0,SE,8.1,-,N/A,Rain,Light Rain,140,2013-01-11 03:33:00
10:52 PM,33.8,31.1,90,30.23,7.0,ESE,10.4,-,N/A,Rain,Light Rain,120,2013-01-11 03:52:00
11:13 PM,33.8,31.3,90,30.21,7.0,SE,9.2,-,0.01,Rain,Rain,130,2013-01-11 04:13:00
11:33 PM,33.8,31.8,92,30.20,4.0,SE,9.2,16.1,0.03,Rain,Light Rain,130,2013-01-11 04:33:00
11:52 PM,33.8,31.8,92,30.19,5.0,SE,11.5,-,0.05,Rain,Rain,130,2013-01-11 04:52:00